Thedford, NE

1:09 AM CDT on September 25, 2016 (GMT -0500)
Thedford

Weather History for KTIF - June, 2014

Change the Weather History Date:

Sunday, June 29, 2014

  Actual Average (KLBF) Record (KLBF)
Temperature  
Mean Temperature 72 °F 72 °F  
Max Temperature 86 °F 86 °F 104 °F (1911)
Min Temperature 57 °F 58 °F 46 °F (1908)
Degree Days  
Heating Degree Days 0 0  
Month to date heating degree days 52  
Since 1 June heating degree days 52  
Since 1 July heating degree days 6687  
Cooling Degree Days 6 8  
Month to date cooling degree days 130  
Year to date cooling degree days 158  
Since 1 June cooling degree days 130  
Growing Degree Days 22 (Base 50)    
Moisture  
Dew Point 52 °F    
Average Humidity 54    
Maximum Humidity 90    
Minimum Humidity 26    
Precipitation  
Precipitation 0.00 in 0.10 in 2.52 in (1988)
Month to date precipitation 3.33  
Year to date precipitation 10.77  
Snow  
Snow 0.00 in 0.00 in 0.00 in ()
Month to date snowfall 0.0  
Since 1 June snowfall 0.0  
Since 1 July snowfall 28.5  
Snow Depth -    
Sea Level Pressure  
Sea Level Pressure 29.86 in    
Wind  
Wind Speed 4 mph (WSW)    
Max Wind Speed 13 mph    
Max Gust Speed 21 mph    
Visibility 10 miles    
Events      
T = Trace of Precipitation, MM = Missing Value Source: NWS Daily Summary

Daily Weather History Graph

Daily Weather History Graph

Search for Another Location

Airport or City:

Trip Planner

Search our weather history database for the weather conditions in past years. The results will help you decide how hot, cold, wet, or windy it might be!

Date:

Astronomy

Jun. 29, 2014 Rise Set
Actual Time 6:09 AM CDT 9:21 PM CDT
Civil Twilight 5:35 AM CDT 9:56 PM CDT
Nautical Twilight 4:51 AM CDT 10:40 PM CDT
Astronomical Twilight 3:58 AM CDT 11:33 PM CDT
Moon 8:31 AM CDT (6/29) 10:40 PM CDT (6/29)
Length of Visible Light 16h 20m
Length of Day
15h 12m
Waxing Crescent, 5% of the Moon is Illuminated
Jun 29
Waxing Crescent
Jul 5
First Quarter
Jul 12
Full
Jul 18
Last Quarter
Jul 26
New

Hourly Weather History & Observations

Time (CDT) Temp. Heat Index Dew Point Humidity Pressure Visibility Wind Dir Wind Speed Gust Speed Precip Events Conditions
12:15 AM 63.3 °F - 54.7 °F 73% 29.83 in 10.0 mi ENE 3.5 mph - N/A   Clear
12:35 AM 59.2 °F - 55.6 °F 88% 29.84 in 10.0 mi Calm Calm - N/A   Clear
12:55 AM 60.8 °F - 55.8 °F 83% 29.84 in 10.0 mi Calm Calm - N/A   Clear
1:15 AM 60.4 °F - 56.7 °F 87% 29.85 in 10.0 mi Calm Calm - N/A   Clear
1:35 AM 59.5 °F - 56.7 °F 90% 29.84 in 10.0 mi Calm Calm - N/A   Clear
1:55 AM 58.3 °F - 54.9 °F 88% 29.83 in 10.0 mi NW 4.6 mph - N/A   Clear
2:15 AM 59.9 °F - 54.9 °F 83% 29.84 in 10.0 mi Calm Calm - N/A   Clear
2:35 AM 59.4 °F - 55.9 °F 88% 29.87 in 10.0 mi WNW 6.9 mph - N/A   Clear
2:55 AM 60.6 °F - 57.2 °F 88% 29.88 in 10.0 mi WSW 8.1 mph - N/A   Mostly Cloudy
3:15 AM 61.7 °F - 57.6 °F 86% 29.88 in 7.0 mi SW 12.7 mph 17.3 mph N/A   Mostly Cloudy
3:35 AM 62.6 °F - 55.6 °F 78% 29.87 in 10.0 mi WNW 9.2 mph - N/A   Scattered Clouds
3:55 AM 61.7 °F - 56.3 °F 82% 29.89 in 10.0 mi West 6.9 mph - N/A   Mostly Cloudy
4:15 AM 61.5 °F - 56.3 °F 83% 29.88 in 10.0 mi NNW 6.9 mph - N/A   Scattered Clouds
4:30 AM 61.7 °F - 55.8 °F 81% 29.87 in 10.0 mi WNW 10.4 mph - N/A   Scattered Clouds
5:00 AM 59.9 °F - 55.4 °F 85% 29.87 in 10.0 mi West 5.8 mph - N/A   Scattered Clouds
5:30 AM 60.3 °F - 53.4 °F 78% 29.87 in 10.0 mi WSW 5.8 mph - N/A   Scattered Clouds
5:55 AM 59.0 °F - 53.6 °F 82% 29.87 in 10.0 mi WNW 4.6 mph - N/A   Clear
6:10 AM 58.1 °F - 53.4 °F 84% 29.87 in 10.0 mi WNW 5.8 mph - N/A   Clear
6:35 AM 57.2 °F - 52.3 °F 84% 29.87 in 10.0 mi WNW 3.5 mph - N/A   Clear
6:55 AM 58.5 °F - 52.2 °F 80% 29.88 in 10.0 mi WSW 4.6 mph - N/A   Clear
7:15 AM 60.1 °F - 52.7 °F 77% 29.88 in 10.0 mi WSW 4.6 mph - N/A   Clear
7:35 AM 61.7 °F - 53.2 °F 74% 29.87 in 10.0 mi Calm Calm - N/A   Clear
7:55 AM 61.9 °F - 53.8 °F 75% 29.89 in 10.0 mi WNW 5.8 mph - N/A   Clear
8:15 AM 63.1 °F - 53.6 °F 71% 29.89 in 10.0 mi WNW 4.6 mph - N/A   Clear
8:35 AM 64.8 °F - 52.9 °F 65% 29.89 in 10.0 mi Calm Calm - N/A   Clear
8:55 AM 66.4 °F - 52.7 °F 61% 29.90 in 10.0 mi Calm Calm - N/A   Clear
9:15 AM 67.8 °F - 53.1 °F 59% 29.91 in 10.0 mi Calm Calm - N/A   Clear
9:35 AM 69.1 °F - 52.2 °F 55% 29.91 in 10.0 mi Calm Calm - N/A   Clear
9:55 AM 70.7 °F - 50.2 °F 48% 29.92 in 10.0 mi Calm Calm - N/A   Clear
10:15 AM 71.8 °F - 49.8 °F 46% 29.92 in 10.0 mi Calm Calm - N/A   Clear
10:35 AM 73.8 °F - 49.8 °F 43% 29.91 in 10.0 mi Calm Calm - N/A   Clear
10:55 AM 75.4 °F - 47.3 °F 37% 29.91 in 10.0 mi SE 3.5 mph - N/A   Clear
11:15 AM 75.6 °F - 46.6 °F 36% 29.91 in 10.0 mi ESE 4.6 mph - N/A   Clear
11:35 AM 76.3 °F - 46.9 °F 35% 29.91 in 10.0 mi South 6.9 mph - N/A   Clear
11:55 AM 77.9 °F - 46.8 °F 33% 29.91 in 10.0 mi SE 4.6 mph - N/A   Clear
12:15 PM 78.3 °F - 46.8 °F 33% 29.90 in 10.0 mi Calm Calm - N/A   Clear
12:35 PM 79.0 °F - 47.1 °F 32% 29.90 in 10.0 mi South 6.9 mph - N/A   Clear
12:55 PM 79.3 °F - 47.3 °F 32% 29.89 in 10.0 mi Calm Calm - N/A   Clear
1:15 PM 80.4 °F - 47.8 °F 32% 29.89 in 10.0 mi SSE 5.8 mph - N/A   Clear
1:35 PM 80.6 °F - 47.7 °F 31% 29.88 in 10.0 mi West 3.5 mph - N/A   Clear
1:55 PM 81.3 °F - 49.1 °F 32% 29.87 in 10.0 mi SSE 6.9 mph - N/A   Clear
2:15 PM 82.2 °F - 49.1 °F 31% 29.87 in 10.0 mi SSW 11.5 mph 16.1 mph N/A   Clear
2:35 PM 82.6 °F - 50.2 °F 32% 29.86 in 10.0 mi WSW 5.8 mph - N/A   Clear
2:55 PM 82.9 °F - 50.9 °F 33% 29.86 in 10.0 mi SSW 8.1 mph - N/A   Clear
3:15 PM 83.5 °F - 51.1 °F 32% 29.86 in 10.0 mi West 6.9 mph 17.3 mph N/A   Clear
3:35 PM 84.0 °F - 51.1 °F 32% 29.85 in 10.0 mi SW 9.2 mph - N/A   Clear
3:55 PM 85.5 °F - 47.7 °F 27% 29.85 in 10.0 mi West 9.2 mph 18.4 mph N/A   Clear
4:15 PM 84.9 °F - 45.9 °F 26% 29.85 in 10.0 mi West 12.7 mph 16.1 mph N/A   Clear
4:35 PM 85.1 °F - 47.1 °F 27% 29.84 in 10.0 mi West 8.1 mph 20.7 mph N/A   Clear
4:55 PM 85.6 °F - 47.7 °F 27% 29.83 in 10.0 mi WSW 9.2 mph - N/A   Clear
5:15 PM 86.0 °F - 47.1 °F 26% 29.83 in 10.0 mi West 8.1 mph 17.3 mph N/A   Clear
5:35 PM 85.3 °F - 46.9 °F 26% 29.83 in 10.0 mi West 6.9 mph - N/A   Clear
5:55 PM 86.2 °F - 48.4 °F 27% 29.82 in 10.0 mi WSW 12.7 mph - N/A   Clear
6:15 PM 86.2 °F - 48.7 °F 27% 29.81 in 10.0 mi West 8.1 mph - N/A   Clear
6:35 PM 86.2 °F - 48.4 °F 27% 29.81 in 10.0 mi WSW 8.1 mph - N/A   Clear
6:55 PM 85.8 °F - 47.8 °F 27% 29.81 in 10.0 mi West 8.1 mph - N/A   Clear
7:15 PM 85.3 °F - 48.6 °F 28% 29.80 in 10.0 mi NW 4.6 mph - N/A   Clear
7:35 PM 84.7 °F - 48.9 °F 29% 29.80 in 10.0 mi Calm Calm - N/A   Clear
7:55 PM 84.2 °F - 50.0 °F 30% 29.80 in 10.0 mi Calm Calm - N/A   Clear
8:15 PM 84.2 °F - 50.0 °F 30% 29.80 in 10.0 mi Calm Calm - N/A   Clear
8:40 PM 81.5 °F 80.8 °F 53.8 °F 38% 29.80 in 10.0 mi SSE 3.5 mph - N/A   Clear
8:55 PM 79.3 °F - 56.3 °F 45% 29.80 in 10.0 mi SSE 5.8 mph - N/A   Clear
9:15 PM 76.8 °F - 55.8 °F 48% 29.80 in 10.0 mi SE 3.5 mph - N/A   Clear
9:35 PM 74.1 °F - 57.4 °F 56% 29.81 in 10.0 mi SE 3.5 mph - N/A   Clear
9:55 PM 72.9 °F - 56.3 °F 56% 29.81 in 10.0 mi SE 3.5 mph - N/A   Clear
10:10 PM 70.9 °F - 58.3 °F 64% 29.83 in 10.0 mi Calm Calm - N/A   Scattered Clouds
10:35 PM 72.5 °F - 56.1 °F 56% 29.83 in 10.0 mi Calm Calm - N/A   Scattered Clouds
10:55 PM 71.4 °F - 56.1 °F 58% 29.84 in 10.0 mi Calm Calm - N/A   Clear
11:15 PM 70.5 °F - 55.9 °F 60% 29.85 in 10.0 mi Calm Calm - N/A   Clear
11:35 PM 68.2 °F - 55.8 °F 64% 29.85 in 10.0 mi ENE 3.5 mph - N/A   Scattered Clouds